Location: Gokavaram
(16.9752°N, 81.0696°E)
Time: 20:17:51
(UTC+00:00)

SEDSat Delta rocket - Pass Details

Date: 15 May 2026
Orbit: 529 x 962 km, 31.4° (Epoch: 7 June)

Event Time Altitude Azimuth Distance (km) Brightness Sun altitude
Exits shadow 21:58:45 59° 357° (N) 829 3.7 -27.8°
Maximum altitude 21:59:14 62° 26° (NNE) 799 3.7 -27.7°
Drops below altitude 10° 22:03:58 10° 106° (ESE) 2,044 6.2 -26.7°
Sets 22:06:12 0° 110° (ESE) 2,889 7.0 -26.2°
